Aérodrome :
LOGIN :

S'inscrire | Disclaimer

   EN    FR    IT 

 










Légende :    VFR   VFR Marginal   IFR   IFR Intensif   IFR Très Intensif
Visi : 
Plafond : 
>= 8 km
>= 3000ft
5 à 8 km
1000 à 3000 ft
1500m à 5 km
500 à 1000 ft
800 à 1500m
200 à 500 ft
< 800m
< 200 ft
Symboles :   Orages  Brouillard  Fortes neiges  Fortes précipitations  Vent > 20 kt
SIGMETs :   Divers  Orages  Givrage  Turbulence  Onde Orograph.  Cendres Volcan.







- Altitude de l'aérodrome : 768 ft
- Code IATA : MXP


LIMC - Milano Malpensa

DERNIER METAR :
  • 151950Z 27003KT 230V360 CAVOK 21/14 Q1014 NOSIG

METARs EXPIRÉS :
  • 151920Z 26004KT 210V300 CAVOK 22/13 Q1013 NOSIG
  • 151850Z 26004KT 230V310 CAVOK 22/13 Q1013 NOSIG
  • 151820Z 23004KT 200V280 9999 SCT080 22/13 Q1013 NOSIG
  • 151750Z 24003KT 130V280 9999 SCT080 23/13 Q1013 NOSIG
  • 151720Z 23003KT 180V290 9999 SCT090 23/13 Q1013 NOSIG

TAF TAF LIMC
Valide du 15 à 18h jusqu'au 17 à 00h UTC


151700Z 1518/1624 VRB05KT 9999 SCT060
Pas de NOTAMs connus pour ce terrain.



MET'MAP, la Météo Aéronautique d'un coup d'oeil ! - Copyright ORBIFLY Décembre 2007 - Disclaimer

ORBIFLY MET'MAP TEAM :

Programmation & Développement : Alexandra Zaïnal
Conception & Développement : Baudouin d'Aumeries
Co-Programmation & Développement : Marc-Olivier Méhu
Soutien technique & logistique : Manuel Goepfert

Contact : metmap@orbifly.com




SOURCES & CREDITS :

   NOAA